EW9957 Weather Reports


Display with metric or nautical units.
time (UTC)temp
F
wind
direction
speed
MPH
gust
MPH
rain 1hr
in
rain 24hr
in
rain mn
in
humidity
%
barometer
mb
20260905123110 63 35 0.0 2.0 0.00 0.00 0.00 87 1014.2
20260905123027 63 35 0.0 2.0 0.00 0.00 0.00 87 1014.2
20260905122520 63 35 0.0 2.0 0.00 0.00 0.00 88 1014.1
20260905122053 62 37 1.0 2.0 0.00 0.00 0.00 87 1014.1
20260905121553 62 35 0.0 0.0 0.00 0.00 0.00 88 1014.2
20260905121025 62 34 0.0 0.0 0.00 0.00 0.00 88 1014.2
20260905120559 62 36 0.0 0.0 0.00 0.00 0.00 88 1014.1
20260905120015 62 34 0.0 0.0 0.00 0.00 0.00 88 1014.0
20260905115528 62 37 0.0 0.0 0.00 0.00 0.00 89 1014.0
20260905115043 62 34 0.0 0.0 0.00 0.00 0.00 88 1013.9
20260905114614 62 34 0.0 0.0 0.00 0.00 0.00 88 1014.0
20260905114532 62 34 0.0 0.0 0.00 0.00 0.00 88 1014.0
20260905114025 62 37 0.0 0.0 0.00 0.00 0.00 88 1014.0
20260905113538 62 36 0.0 0.0 0.00 0.00 0.00 89 1014.1
20260905113017 62 35 0.0 0.0 0.00 0.00 0.00 88 1014.1
20260905112530 62 38 0.0 0.0 0.00 0.00 0.00 89 1014.1
20260905112023 61 36 0.0 0.0 0.00 0.00 0.00 88 1014.2
20260905111544 62 36 0.0 0.0 0.00 0.00 0.00 88 1014.3
20260905111038 62 35 0.0 0.0 0.00 0.00 0.00 88 1014.3
20260905110611 61 35 0.0 0.0 0.00 0.00 0.00 88 1014.3
20260905110049 62 36 0.0 0.0 0.00 0.00 0.00 88 1014.3
20260905105542 61 35 0.0 0.0 0.00 0.00 0.00 88 1014.3
20260905105015 61 34 0.0 0.0 0.00 0.00 0.00 87 1014.2
20260905104558 62 36 0.0 0.0 0.00 0.00 0.00 88 1014.2
20260905104105 62 37 0.0 0.0 0.00 0.00 0.00 88 1014.3
20260905103616 62 35 0.0 0.0 0.00 0.00 0.00 88 1014.2
20260905103534 62 35 0.0 0.0 0.00 0.00 0.00 88 1014.2
20260905103014 62 34 0.0 0.0 0.00 0.00 0.00 88 1014.3
20260905102528 62 34 0.0 0.0 0.00 0.00 0.00 87 1014.3
20260905102101 62 36 0.0 0.0 0.00 0.00 0.00 87 1014.4
20260905102019 62 36 0.0 0.0 0.00 0.00 0.00 87 1014.4
20260905101539 62 34 0.0 0.0 0.00 0.00 0.00 87 1014.4
20260905101112 62 36 0.0 0.0 0.00 0.00 0.00 87 1014.4
20260905101029 62 36 0.0 0.0 0.00 0.00 0.00 87 1014.4
20260905100523 62 34 0.0 0.0 0.00 0.00 0.00 87 1014.4
20260905100046 62 32 0.0 0.0 0.00 0.00 0.00 87 1014.4
20260905095539 62 34 0.0 0.0 0.00 0.00 0.00 87 1014.4
20260905095051 62 37 0.0 0.0 0.00 0.00 0.00 86 1014.5
20260905094529 62 36 0.0 0.0 0.00 0.00 0.00 87 1014.5
20260905094023 62 38 0.0 0.0 0.00 0.00 0.00 88 1014.5
20260905093536 62 38 0.0 0.0 0.00 0.00 0.00 87 1014.5
20260905093036 62 36 0.0 0.0 0.00 0.00 0.00 87 1014.5
20260905092549 62 34 0.0 0.0 0.00 0.00 0.00 87 1014.5
20260905092042 62 36 0.0 0.0 0.00 0.00 0.00 87 1014.5
20260905091606 62 36 0.0 0.0 0.00 0.00 0.00 86 1014.5
20260905091523 62 36 0.0 0.0 0.00 0.00 0.00 86 1014.5
20260905091057 62 34 0.0 0.0 0.00 0.00 0.00 87 1014.4
20260905090528 63 35 0.0 0.0 0.00 0.00 0.00 88 1014.4
20260905090049 62 35 0.0 0.0 0.00 0.00 0.00 88 1014.5
20260905085541 63 36 0.0 0.0 0.00 0.00 0.00 88 1014.6
20260905085113 63 38 0.0 0.0 0.00 0.00 0.00 87 1014.6
20260905085030 63 38 0.0 0.0 0.00 0.00 0.00 87 1014.6
20260905084529 63 37 0.0 0.0 0.00 0.00 0.00 88 1014.8
20260905084042 62 35 0.0 0.0 0.00 0.00 0.00 87 1014.8
20260905083535 62 35 0.0 0.0 0.00 0.00 0.00 86 1014.8
20260905083015 63 38 0.0 0.0 0.00 0.00 0.00 87 1014.8
20260905082548 63 35 0.0 0.0 0.00 0.00 0.00 86 1014.9
20260905082021 63 38 0.0 0.0 0.00 0.00 0.00 87 1014.9
20260905081521 63 36 0.0 2.0 0.00 0.00 0.00 86 1015.0
20260905081014 63 36 1.0 2.0 0.00 0.00 0.00 87 1015.1
20260905080607 64 35 1.0 2.0 0.00 0.00 0.00 87 1015.1
20260905080107 64 35 0.0 2.0 0.00 0.00 0.00 87 1015.1
20260905080024 64 35 0.0 2.0 0.00 0.00 0.00 87 1015.1
20260905075558 64 35 1.0 3.0 0.00 0.00 0.00 87 1015.2
20260905075515 64 35 1.0 3.0 0.00 0.00 0.00 87 1015.2
20260905075029 64 36 1.0 3.0 0.00 0.00 0.00 88 1015.2
20260905074527 63 38 0.0 0.0 0.00 0.00 0.00 87 1015.3
20260905074101 63 34 0.0 0.0 0.00 0.00 0.00 88 1015.3
20260905073553 63 37 0.0 0.0 0.00 0.00 0.00 88 1015.3
20260905073053 63 35 0.0 2.0 0.00 0.00 0.00 87 1015.2
20260905072546 63 32 0.0 2.0 0.00 0.00 0.00 86 1015.2
20260905072039 63 35 0.0 0.0 0.00 0.00 0.00 87 1015.3
20260905071611 63 35 0.0 0.0 0.00 0.00 0.00 86 1015.4
20260905071021 63 37 0.0 0.0 0.00 0.00 0.00 86 1015.3
20260905070616 64 35 0.0 0.0 0.00 0.00 0.00 87 1015.3
20260905070533 64 35 0.0 0.0 0.00 0.00 0.00 87 1015.3
20260905070033 64 35 0.0 2.0 0.00 0.00 0.00 86 1015.3
20260905065527 64 35 0.0 2.0 0.00 0.00 0.00 86 1015.3
20260905065101 64 35 1.0 2.0 0.00 0.00 0.00 86 1015.3
20260905064519 64 35 0.0 2.0 0.00 0.00 0.00 86 1015.3
20260905064032 64 34 0.0 0.0 0.00 0.00 0.00 86 1015.3
20260905063527 64 35 0.0 0.0 0.00 0.00 0.00 86 1015.3
20260905063047 64 38 0.0 1.0 0.00 0.00 0.00 86 1015.3
20260905062600 64 35 1.0 2.0 0.00 0.00 0.00 86 1015.3
20260905062517 64 35 1.0 2.0 0.00 0.00 0.00 86 1015.3
20260905062051 64 32 0.0 2.0 0.00 0.00 0.00 86 1015.2
20260905061613 64 34 1.0 2.0 0.00 0.00 0.00 86 1015.1
20260905061530 64 34 1.0 2.0 0.00 0.00 0.00 86 1015.1
20260905061043 64 34 0.0 2.0 0.00 0.00 0.00 85 1015.1
20260905060535 64 36 0.0 2.0 0.00 0.00 0.00 85 1015.2
20260905060051 64 36 0.0 0.0 0.00 0.00 0.00 84 1015.1
20260905055605 64 35 0.0 2.0 0.00 0.00 0.00 84 1015.1
20260905055522 64 35 0.0 2.0 0.00 0.00 0.00 84 1015.1
20260905055035 64 35 0.0 2.0 0.00 0.00 0.00 84 1015.1
20260905054558 64 36 1.0 2.0 0.00 0.00 0.00 83 1015.0
20260905054050 65 38 0.0 2.0 0.00 0.00 0.00 83 1015.0
20260905053543 65 35 0.0 2.0 0.00 0.00 0.00 83 1015.0
20260905053114 65 34 1.0 2.0 0.00 0.00 0.00 83 1015.1
20260905052524 65 35 0.0 2.0 0.00 0.00 0.00 83 1015.1
20260905052057 65 36 0.0 1.0 0.00 0.00 0.00 82 1015.1
20260905051554 65 35 0.0 1.0 0.00 0.00 0.00 82 1015.1
20260905051025 66 36 0.0 2.0 0.00 0.00 0.00 81 1015.1
20260905050540 66 32 1.0 2.0 0.00 0.00 0.00 82 1015.1
20260905050019 66 36 1.0 2.0 0.00 0.00 0.00 82 1015.0
20260905045533 66 36 1.0 2.0 0.00 0.00 0.00 83 1015.0
20260905045027 65 34 0.0 0.0 0.00 0.00 0.00 83 1015.0
20260905044548 65 35 0.0 0.0 0.00 0.00 0.00 82 1015.0
20260905044101 66 36 0.0 0.0 0.00 0.00 0.00 82 1014.9
20260905044018 66 36 0.0 0.0 0.00 0.00 0.00 82 1014.9
20260905043531 66 34 0.0 0.0 0.00 0.00 0.00 81 1014.8
20260905043051 67 36 0.0 0.0 0.00 0.00 0.00 81 1014.6
20260905042525 67 36 0.0 0.0 0.00 0.00 0.00 80 1014.5
20260905042058 67 35 0.0 2.0 0.00 0.00 0.00 80 1014.5
20260905042016 67 35 0.0 2.0 0.00 0.00 0.00 80 1014.5
20260905041558 67 36 0.0 2.0 0.00 0.00 0.00 80 1014.5
20260905041516 67 36 0.0 2.0 0.00 0.00 0.00 80 1014.5
20260905041029 68 36 1.0 2.0 0.00 0.00 0.00 80 1014.5
20260905040543 68 36 0.0 2.0 0.00 0.00 0.00 80 1014.6
20260905040023 68 35 1.0 2.0 0.00 0.00 0.00 80 1014.6
20260905035517 68 35 0.0 3.0 0.00 0.00 0.00 80 1014.5
20260905035052 68 36 1.0 4.0 0.00 0.00 0.00 80 1014.5
20260905034553 68 34 1.0 4.0 0.00 0.00 0.00 80 1014.4
20260905034105 68 32 1.0 4.0 0.00 0.00 0.00 80 1014.4
20260905033557 68 36 3.0 4.0 0.00 0.00 0.00 79 1014.4
20260905033057 68 36 3.0 5.0 0.00 0.00 0.00 79 1014.3
20260905033014 68 36 3.0 5.0 0.00 0.00 0.00 79 1014.3
20260905032547 68 34 3.0 5.0 0.00 0.00 0.00 78 1014.3
20260905032039 68 35 4.0 5.0 0.00 0.00 0.00 78 1014.3
20260905031610 68 35 3.0 5.0 0.00 0.00 0.00 78 1014.2
20260905031020 68 36 4.0 5.0 0.00 0.00 0.00 77 1014.1
20260905030533 69 35 3.0 5.0 0.00 0.00 0.00 77 1014.0
20260905030055 69 35 4.0 5.0 0.00 0.00 0.00 75 1014.0
20260905025548 70 36 2.0 5.0 0.00 0.00 0.00 74 1013.8
20260905025100 70 32 4.0 5.0 0.00 0.00 0.00 74 1013.7
20260905025018 70 32 4.0 5.0 0.00 0.00 0.00 74 1013.7
20260905024518 70 34 2.0 4.0 0.00 0.00 0.00 73 1013.8
20260905024052 70 36 3.0 5.0 0.00 0.00 0.00 73 1013.8
20260905023605 70 35 3.0 5.0 0.00 0.00 0.00 73 1013.7
20260905023110 70 35 4.0 7.0 0.00 0.00 0.00 73 1013.9
20260905023028 70 35 4.0 7.0 0.00 0.00 0.00 73 1013.9
20260905022601 70 37 4.0 7.0 0.00 0.00 0.00 72 1013.9
20260905022033 70 36 5.0 7.0 0.00 0.00 0.00 71 1013.8
20260905021555 71 35 4.0 7.0 0.00 0.00 0.00 69 1013.9
20260905021047 71 35 5.0 6.0 0.00 0.00 0.00 69 1013.8
20260905020518 72 36 3.0 8.0 0.00 0.00 0.00 67 1013.8
20260905020019 72 34 3.0 8.0 0.00 0.00 0.00 66 1013.8
20260905015553 72 35 4.0 8.0 0.00 0.00 0.00 66 1013.8
20260905015104 72 32 5.0 8.0 0.00 0.00 0.00 65 1013.7
20260905014522 73 36 4.0 8.0 0.00 0.00 0.00 64 1013.8
20260905014037 74 35 4.0 7.0 0.00 0.00 0.00 63 1013.7
20260905013610 74 36 5.0 7.0 0.00 0.00 0.00 62 1013.7
20260905013528 74 36 5.0 7.0 0.00 0.00 0.00 62 1013.7
20260905013046 74 36 2.0 8.0 0.00 0.00 0.00 62 1013.7
20260905012540 74 32 4.0 8.0 0.00 0.00 0.00 61 1013.6
20260905012034 74 36 2.0 8.0 0.00 0.00 0.00 61 1013.7
20260905011517 74 38 4.0 8.0 0.00 0.00 0.00 61 1013.8
20260905011047 75 34 3.0 8.0 0.00 0.00 0.00 60 1013.8
20260905010559 74 35 4.0 8.0 0.00 0.00 0.00 61 1013.7
20260905010111 75 35 3.0 6.0 0.00 0.00 0.00 59 1013.7
20260905005541 75 35 4.0 9.0 0.00 0.00 0.00 62 1013.7
20260905005053 75 36 5.0 10.0 0.00 0.00 0.00 62 1013.7
20260905004555 75 35 6.0 10.0 0.00 0.00 0.00 63 1013.9
20260905004047 75 34 4.0 11.0 0.00 0.00 0.00 62 1013.8
20260905003559 75 36 7.0 11.0 0.00 0.00 0.00 62 1013.8
20260905003100 75 36 4.0 10.0 0.00 0.00 0.00 61 1013.8
20260905003018 75 36 4.0 10.0 0.00 0.00 0.00 61 1013.8
20260905002612 76 36 6.0 11.0 0.00 0.00 0.00 57 1013.8
20260905002529 76 36 6.0 11.0 0.00 0.00 0.00 57 1013.8
20260905002103 76 35 5.0 11.0 0.00 0.00 0.00 58 1013.8
20260905001541 76 35 6.0 13.0 0.00 0.00 0.00 56 1013.6
20260905001053 75 36 9.0 13.0 0.00 0.00 0.00 58 1013.7
20260905000601 75 36 6.0 10.0 0.00 0.00 0.00 58 1013.7
20260905000024 76 34 5.0 10.0 0.00 0.00 0.00 57 1013.8
20260904235613 76 34 5.0 10.0 0.00 0.00 0.00 57 1013.8
20260904235043 75 38 4.0 10.0 0.00 0.00 0.00 51 1013.8
20260904234605 78 36 6.0 10.0 0.00 0.00 0.00 51 1013.9
20260904234015 76 34 4.0 11.0 0.00 0.00 0.00 54 1013.9
20260904233549 76 34 4.0 11.0 0.00 0.00 0.00 57 1013.9
20260904233049 76 35 8.0 11.0 0.00 0.00 0.00 52 1013.9
20260904232543 77 36 5.0 10.0 0.00 0.00 0.00 53 1013.9
20260904232055 76 34 7.0 12.0 0.00 0.00 0.00 53 1013.9
20260904231555 76 35 10.0 12.0 0.00 0.00 0.00 51 1013.8
20260904231047 76 34 5.0 11.0 0.00 0.00 0.00 54 1013.9
20260904230538 75 35 7.0 13.0 0.00 0.00 0.00 53 1014.0
20260904230100 76 34 6.0 13.0 0.00 0.00 0.00 46 1014.1
20260904230018 76 34 6.0 13.0 0.00 0.00 0.00 46 1014.1
20260904225610 76 35 6.0 10.0 0.00 0.00 0.00 46 1014.1
20260904225527 76 35 6.0 10.0 0.00 0.00 0.00 46 1014.1
20260904225101 76 35 7.0 12.0 0.00 0.00 0.00 49 1014.1
20260904224600 76 35 5.0 12.0 0.00 0.00 0.00 51 1014.1
20260904224517 76 35 5.0 12.0 0.00 0.00 0.00 51 1014.1
20260904224107 77 35 5.0 12.0 0.00 0.00 0.00 51 1014.0
20260904224024 77 35 5.0 12.0 0.00 0.00 0.00 51 1014.0
20260904223522 77 34 7.0 11.0 0.00 0.00 0.00 52 1014.1
20260904223110 77 34 4.0 11.0 0.00 0.00 0.00 54 1014.2
20260904223027 77 34 4.0 11.0 0.00 0.00 0.00 54 1014.2
20260904222521 76 36 7.0 15.0 0.00 0.00 0.00 53 1014.3
20260904222018 76 35 8.0 15.0 0.00 0.00 0.00 54 1014.3
20260904221539 76 35 8.0 16.0 0.00 0.00 0.00 54 1014.3
20260904221108 77 35 8.0 16.0 0.00 0.00 0.00 53 1014.3
20260904221026 77 35 8.0 16.0 0.00 0.00 0.00 53 1014.3
20260904220559 76 35 9.0 14.0 0.00 0.00 0.00 55 1014.3
20260904220017 77 35 9.0 15.0 0.00 0.00 0.00 52 1014.3
20260904215611 76 36 6.0 15.0 0.00 0.00 0.00 57 1014.2
20260904215042 76 37 8.0 14.0 0.00 0.00 0.00 55 1014.3
20260904214604 77 34 8.0 13.0 0.00 0.00 0.00 56 1014.3
20260904214521 77 34 8.0 13.0 0.00 0.00 0.00 56 1014.3
20260904214055 76 35 8.0 13.0 0.00 0.00 0.00 54 1014.4
20260904213527 76 35 8.0 13.0 0.00 0.00 0.00 54 1014.4
20260904213047 77 35 7.0 13.0 0.00 0.00 0.00 55 1014.4
20260904212539 78 34 6.0 13.0 0.00 0.00 0.00 55 1014.4
20260904212032 77 35 6.0 13.0 0.00 0.00 0.00 57 1014.4
20260904211513 77 35 7.0 13.0 0.00 0.00 0.00 56 1014.4
20260904211026 76 34 8.0 12.0 0.00 0.00 0.00 59 1014.4
20260904210601 77 34 7.0 12.0 0.00 0.00 0.00 59 1014.5
20260904210110 76 36 7.0 12.0 0.00 0.00 0.00 59 1014.5
20260904205602 76 35 7.0 11.0 0.00 0.00 0.00 60 1014.6
20260904205520 76 35 7.0 11.0 0.00 0.00 0.00 60 1014.6
20260904205113 76 35 8.0 12.0 0.00 0.00 0.00 59 1014.5
20260904204555 76 36 6.0 11.0 0.00 0.00 0.00 60 1014.5
20260904204025 77 34 7.0 10.0 0.00 0.00 0.00 62 1014.5
20260904203537 75 35 6.0 12.0 0.00 0.00 0.00 62 1014.6
20260904203036 76 35 6.0 12.0 0.00 0.00 0.00 61 1014.6
20260904202529 76 35 9.0 13.0 0.00 0.00 0.00 61 1014.6
20260904202041 76 34 8.0 13.0 0.00 0.00 0.00 62 1014.6
20260904201612 76 35 7.0 13.0 0.00 0.00 0.00 61 1014.6
20260904201529 76 35 7.0 13.0 0.00 0.00 0.00 61 1014.6
20260904201043 77 38 8.0 13.0 0.00 0.00 0.00 60 1014.6
20260904200536 76 36 8.0 12.0 0.00 0.00 0.00 61 1014.6
20260904200053 76 34 8.0 12.0 0.00 0.00 0.00 61 1014.6
20260904195604 76 35 6.0 15.0 0.00 0.00 0.00 60 1014.7
20260904195037 76 34 8.0 15.0 0.00 0.00 0.00 60 1014.7
20260904194537 77 35 6.0 10.0 0.00 0.00 0.00 60 1014.7
20260904194029 76 35 6.0 11.0 0.00 0.00 0.00 60 1014.7
20260904193522 75 35 7.0 11.0 0.00 0.00 0.00 61 1014.8
20260904193105 76 35 6.0 11.0 0.00 0.00 0.00 59 1014.8
20260904192556 77 34 7.0 11.0 0.00 0.00 0.00 60 1014.8
20260904192047 76 35 3.0 13.0 0.00 0.00 0.00 60 1014.9
20260904191605 76 35 9.0 13.0 0.00 0.00 0.00 60 1014.9
20260904191041 77 35 4.0 10.0 0.00 0.00 0.00 59 1015.0
20260904190533 75 35 5.0 9.0 0.00 0.00 0.00 60 1015.1
20260904190048 76 37 5.0 9.0 0.00 0.00 0.00 59 1015.2
20260904185602 76 34 5.0 13.0 0.00 0.00 0.00 59 1015.3
20260904185016 76 36 6.0 13.0 0.00 0.00 0.00 59 1015.3
20260904184555 76 38 5.0 13.0 0.00 0.00 0.00 58 1015.3
20260904184048 75 35 5.0 10.0 0.00 0.00 0.00 60 1015.4
20260904183601 76 35 6.0 10.0 0.00 0.00 0.00 59 1015.3
20260904183112 75 38 4.0 10.0 0.00 0.00 0.00 59 1015.4
20260904183030 75 38 4.0 10.0 0.00 0.00 0.00 59 1015.4
20260904182523 75 36 7.0 10.0 0.00 0.00 0.00 59 1015.4
20260904182057 74 38 2.0 7.0 0.00 0.00 0.00 60 1015.4
20260904181514 75 38 1.0 7.0 0.00 0.00 0.00 59 1015.4
20260904181028 75 35 4.0 8.0 0.00 0.00 0.00 60 1015.4
20260904180522 75 32 4.0 8.0 0.00 0.00 0.00 61 1015.4
20260904180044 75 35 1.0 9.0 0.00 0.00 0.00 62 1015.4
20260904175521 73 37 7.0 9.0 0.00 0.00 0.00 63 1015.5
20260904175036 73 35 4.0 8.0 0.00 0.00 0.00 64 1015.6
20260904174516 74 34 2.0 5.0 0.00 0.00 0.00 65 1015.6
20260904174049 73 31 2.0 7.0 0.00 0.00 0.00 65 1015.5
20260904173541 73 35 2.0 5.0 0.00 0.00 0.00 65 1015.5
20260904173020 72 37 2.0 8.0 0.00 0.00 0.00 67 1015.6
20260904172554 72 34 4.0 7.0 0.00 0.00 0.00 66 1015.7
20260904172045 72 36 3.0 9.0 0.00 0.00 0.00 67 1015.8
20260904171613 72 38 6.0 9.0 0.00 0.00 0.00 67 1015.7
20260904171104 72 34 1.0 3.0 0.00 0.00 0.00 67 1015.6
20260904170516 72 35 1.0 3.0 0.00 0.00 0.00 68 1015.7
20260904170038 70 34 1.0 5.0 0.00 0.00 0.00 70 1015.8
20260904165610 70 35 2.0 9.0 0.00 0.00 0.00 71 1015.7
20260904165528 70 35 2.0 9.0 0.00 0.00 0.00 71 1015.7
20260904165041 70 34 4.0 10.0 0.00 0.00 0.00 71 1015.6
20260904164520 70 36 1.0 2.0 0.00 0.00 0.00 72 1015.6
20260904164055 70 35 0.0 5.0 0.00 0.00 0.00 72 1015.5
20260904163548 69 35 1.0 5.0 0.00 0.00 0.00 73 1015.4
20260904163047 69 35 1.0 4.0 0.00 0.00 0.00 73 1015.4
20260904162519 69 34 1.0 6.0 0.00 0.00 0.00 75 1015.4
20260904162113 68 35 3.0 6.0 0.00 0.00 0.00 75 1015.4
20260904161531 68 34 1.0 6.0 0.00 0.00 0.00 75 1015.3
20260904161044 68 36 3.0 6.0 0.00 0.00 0.00 75 1015.2
20260904160537 67 35 2.0 4.0 0.00 0.00 0.00 76 1015.2
20260904160037 67 35 2.0 5.0 0.00 0.00 0.00 77 1015.3
20260904155610 66 36 1.0 5.0 0.00 0.00 0.00 78 1015.1
20260904155022 66 36 2.0 5.0 0.00 0.00 0.00 78 1015.0
20260904154605 66 37 3.0 4.0 0.00 0.00 0.00 79 1015.0
20260904154015 66 35 2.0 4.0 0.00 0.00 0.00 79 1014.9
20260904153550 66 34 2.0 4.0 0.00 0.00 0.00 79 1014.9
20260904153050 66 35 1.0 4.0 0.00 0.00 0.00 79 1015.0
20260904152544 66 34 1.0 7.0 0.00 0.00 0.00 80 1015.0
20260904152058 66 36 3.0 7.0 0.00 0.00 0.00 80 1015.0
20260904152015 66 36 3.0 7.0 0.00 0.00 0.00 80 1015.0
20260904151536 65 35 3.0 8.0 0.00 0.00 0.00 81 1014.9
20260904151109 65 35 4.0 8.0 0.00 0.00 0.00 80 1014.9
20260904151026 65 35 4.0 8.0 0.00 0.00 0.00 80 1014.9
20260904150600 65 35 5.0 8.0 0.00 0.00 0.00 81 1015.0
20260904150518 65 35 5.0 8.0 0.00 0.00 0.00 81 1015.0
20260904150035 65 35 4.0 8.0 0.00 0.00 0.00 81 1015.0
20260904145527 65 37 2.0 5.0 0.00 0.00 0.00 82 1015.0
20260904145020 64 34 3.0 6.0 0.00 0.00 0.00 82 1014.9
20260904144603 64 34 2.0 6.0 0.00 0.00 0.00 82 1014.9
20260904144014 64 36 1.0 4.0 0.00 0.00 0.00 83 1014.8
20260904143528 64 36 2.0 4.0 0.00 0.00 0.00 83 1014.8
20260904143027 64 35 3.0 6.0 0.00 0.00 0.00 83 1014.7
20260904142521 64 32 2.0 6.0 0.00 0.00 0.00 84 1014.8
20260904142115 63 35 2.0 6.0 0.00 0.00 0.00 84 1014.7
20260904141553 63 35 2.0 6.0 0.00 0.00 0.00 84 1014.7
20260904141106 63 34 2.0 6.0 0.00 0.00 0.00 84 1014.6
20260904141023 63 34 2.0 6.0 0.00 0.00 0.00 84 1014.6
20260904140518 63 34 2.0 6.0 0.00 0.00 0.00 85 1014.6
20260904140111 63 35 1.0 3.0 0.00 0.00 0.00 85 1014.6
20260904140028 63 35 1.0 3.0 0.00 0.00 0.00 85 1014.6
20260904135541 63 35 1.0 3.0 0.00 0.00 0.00 85 1014.5
20260904135113 63 34 1.0 3.0 0.00 0.00 0.00 85 1014.4
20260904134608 63 37 1.0 3.0 0.00 0.00 0.00 85 1014.3
20260904134526 63 37 1.0 3.0 0.00 0.00 0.00 85 1014.3
20260904134041 63 34 1.0 3.0 0.00 0.00 0.00 85 1014.3
20260904133553 63 35 2.0 3.0 0.00 0.00 0.00 85 1014.3
20260904133052 63 34 1.0 3.0 0.00 0.00 0.00 85 1014.2
20260904132545 63 34 1.0 4.0 0.00 0.00 0.00 85 1014.1
20260904132021 63 34 2.0 4.0 0.00 0.00 0.00 85 1014.2
20260904131559 63 36 3.0 6.0 0.00 0.00 0.00 85 1014.2
20260904131516 63 36 3.0 6.0 0.00 0.00 0.00 85 1014.2
20260904131111 63 35 2.0 6.0 0.00 0.00 0.00 84 1014.2
20260904131028 63 35 2.0 6.0 0.00 0.00 0.00 84 1014.2
20260904130522 63 36 2.0 4.0 0.00 0.00 0.00 84 1014.1
20260904130044 64 34 1.0 3.0 0.00 0.00 0.00 84 1014.1
20260904125538 64 35 1.0 3.0 0.00 0.00 0.00 84 1014.1
20260904125111 64 32 2.0 3.0 0.00 0.00 0.00 84 1014.2
20260904124526 64 34 1.0 6.0 0.00 0.00 0.00 84 1014.1
20260904124020 64 34 2.0 6.0 0.00 0.00 0.00 84 1014.0